User: anonymous   Login
Location: Unspecified
(0.0000°N, 0.0000°E)
Time: 09:53:11
(UTC+00:00)
Language:

PROBA 2 - Orbit

View from above orbital plane
View from above orbital plane
View from above satellite
View from above satellite

Ground track
Ground track

The orbit data is extracted from the following two-line orbital elements,

1 36037U 09059B   16121.50924726  .00000034  00000-0  19004-4 0  9993
2 36037  98.2660 315.1839 0013714 161.7462 198.4229 14.52943385344207
Epoch (UTC): 30 April 2016 12:13:18
Eccentricity: 0.0013714
inclination: 98.2660°
perigee height: 706 km
apogee height: 726 km
right ascension of ascending node: 315.1839°
argument of perigee: 161.7462°
revolutions per day: 14.52943385
mean anomaly at epoch: 198.4229°
orbit number at epoch: 34420

The dashed part of the orbit path shows where the satellite is in the earth's shadow,  

DLR